Regional Weather Roundup
Issued by NWS

Home | Current Version | Previous Version | Graphics & Text | Print | Product List | Glossary On
Versions: 1 2 3 4 5 6 7 8 9 10 11 12 13 14 15 16 17 18 19 20 21 22 23 24 25 26 27 28 29 30 31 32 33 34 35 36 37 38 39 40 41 42 43 44 45 46 47 48 49 50
000
ASUS43 KLMK 020210
RWRKY
KENTUCKY REGIONAL WEATHER ROUNDUP
NATIONAL WEATHER SERVICE LOUISVILLE KY
900 PM EST SUN MAR 01 2015

NOTE "FAIR" INDICATES FEW OR NO CLOUDS BELOW 12,000 FEET
WITH NO SIGNIFICANT WEATHER AND/OR OBSTRUCTIONS TO VISIBILITY.

KYZ001>023-026-027-061>063-070>075-020300-
WESTERN AND SOUTH CENTRAL KENTUCKY

CITY           SKY/WX    TMP DP  RH WIND       PRES   REMARKS
PADUCAH        CLOUDY    35  30  82 N9        30.38R WCI  28
HENDERSON      CLOUDY    34  28  80 NW10      30.36S WCI  26
OWENSBORO      CLOUDY    34  32  92 NW8       30.35S WCI  27
HOPKINSVILLE   CLOUDY    37  36  97 N5        30.33S FOG     WCI  33
BOWLING GREEN    N/A    N/A N/A N/A MISG        N/A
GLASGOW        LGT RAIN  41  41 100 N9        30.31S
$$

KYZ024-025-028>034-038-045-046-053-020300-
NORTH CENTRAL KENTUCKY

CITY           SKY/WX    TMP DP  RH WIND       PRES   REMARKS
LOUISVILLE/SDF CLOUDY    37  33  85 W7        30.32R FOG     WCI  32
LOUISVILLE/LOU CLOUDY    36  32  85 W10       30.32S WCI  28
FORT KNOX      CLOUDY    35  33  92 W6        30.30R WCI  30
$$

KYZ035>037-039>044-047>052-055>060-089>105-020300-
NORTHEAST KENTUCKY

CITY           SKY/WX    TMP DP  RH WIND       PRES   REMARKS
LEXINGTON      FOG       36  36 100 NW6       30.29R VSB 1/2 WCI  31
COVINGTON      CLOUDY    33  31  92 W9        30.28R FOG     WCI  25
FRANKFORT      CLOUDY    36  35  96 W3        30.28S FOG
$$

KYZ054-064>069-076>088-106>120-020300-
SOUTHEAST KENTUCKY

CITY           SKY/WX    TMP DP  RH WIND       PRES   REMARKS
JACKSON        FOG       44  42  93 SW5       30.25F VSB 1/4
LONDON         CLOUDY    45  41  86 S5        30.27F FOG
SOMERSET       FOG       43  43 100 CALM      30.29F VSB 1/2
MIDDLESBORO    FOG       35  35 100 CALM      30.32S VSB 1/2
MONTICELLO     CLOUDY    49  48  96 CALM      30.32S
$$



USA.gov is the U.S. government's official web portal to all federal, state and local government web resources and services.